Change the Weather History Date:

Sunday, September 15, 2013

  Actual Average Record
Temperature  
Mean Temperature 60 °F -  
Max Temperature 66 °F 67 °F 78 °F (1997)
Min Temperature 53 °F 52 °F 50 °F (2006)
Degree Days  
Heating Degree Days 6    
Growing Degree Days 10 (Base 50)    
Moisture  
Dew Point 54 °F    
Average Humidity 87    
Maximum Humidity 100    
Minimum Humidity 63    
Precipitation  
Precipitation 0.00 in - - ()
Sea Level Pressure  
Sea Level Pressure 29.79 in    
Wind  
Wind Speed 5 mph (NW)    
Max Wind Speed 21 mph    
Max Gust Speed 24 mph    
Visibility 6 miles    
Events Fog    
Averages and records for this station are not official NWS values.
T = Trace of Precipitation, MM = Missing Value Source: NWS Daily Summary

Daily Weather History Graph

Daily Weather History Graph

Search for Another Location

Airport or City:

Trip Planner

Search our weather history database for the weather conditions in past years. The results will help you decide how hot, cold, wet, or windy it might be!

Date:

Astronomy

Sep. 15, 2013 Rise Set
Actual Time 6:45 AM PDT 7:08 PM PDT
Civil Twilight 6:20 AM PDT 7:33 PM PDT
Nautical Twilight 5:50 AM PDT 8:03 PM PDT
Astronomical Twilight 5:20 AM PDT 8:33 PM PDT
Moon 4:33 PM PDT (9/15) 2:37 AM PDT (9/15)
Length of Visible Light 13h 13m
Length of Day
12h 23m
Waxing Gibbous, 83% of the Moon is Illuminated
Sep 15
Waxing Gibbous
Sep 19
Full
Sep 26
Last Quarter
Oct 4
New
Oct 11
First Quarter

Hourly Weather History & Observations

Time (PDT) Temp. Dew Point Humidity Pressure Visibility Wind Dir Wind Speed Gust Speed Precip Events Conditions
12:55 AM 55.0 °F 53.1 °F 93% 29.73 in 5.0 mi NW 6.9 mph - N/A   Overcast
1:46 AM 53.6 °F 51.8 °F 94% 29.75 in 1.5 mi Calm Calm - N/A   Overcast
1:48 AM 53.6 °F 51.8 °F 94% 29.75 in 1.0 mi Calm Calm - N/A   Overcast
1:51 AM 53.6 °F 51.8 °F 94% 29.75 in 0.5 mi East 3.5 mph - N/A Fog Fog
1:55 AM 53.1 °F 52.0 °F 96% 29.73 in 0.5 mi Calm Calm - N/A Fog Fog
2:38 AM 53.6 °F 51.8 °F 94% 29.75 in 0.2 mi SE 4.6 mph - N/A Fog Fog
2:55 AM 54.0 °F 52.0 °F 93% 29.73 in 0.2 mi Calm Calm - N/A Fog Fog
3:38 AM 53.6 °F 51.8 °F 94% 29.76 in 0.2 mi Calm Calm - N/A Fog Fog
3:46 AM 53.6 °F 53.6 °F 100% 29.76 in 0.2 mi Calm Calm - N/A Fog Fog
3:55 AM 54.0 °F 53.1 °F 97% 29.73 in 0.2 mi Calm Calm - N/A Fog Fog
4:19 AM 53.6 °F 53.6 °F 100% 29.76 in 0.5 mi Calm Calm - N/A Fog Fog
4:26 AM 53.6 °F 53.6 °F 100% 29.76 in 0.2 mi Calm Calm - N/A Fog Fog
4:35 AM 53.6 °F 53.6 °F 100% 29.76 in 0.5 mi Calm Calm - N/A Fog Fog
4:44 AM 53.6 °F 53.6 °F 100% 29.76 in 1.0 mi Calm Calm - N/A   Mist
4:47 AM 53.6 °F 53.6 °F 100% 29.76 in 1.8 mi NNW 3.5 mph - N/A   Overcast
4:49 AM 53.6 °F 53.6 °F 100% 29.76 in 3.0 mi Calm Calm - N/A   Overcast
4:55 AM 54.0 °F 53.1 °F 97% 29.74 in 5.0 mi NNW 3.5 mph - N/A   Overcast
5:17 AM 53.6 °F 53.6 °F 100% 29.77 in 2.5 mi NNW 3.5 mph - N/A   Overcast
5:34 AM 53.6 °F 53.6 °F 100% 29.77 in 3.0 mi Calm Calm - N/A   Overcast
5:55 AM 55.0 °F 53.1 °F 93% 29.76 in 4.0 mi NW 5.8 mph - N/A   Overcast
6:55 AM 55.0 °F 53.1 °F 93% 29.78 in 7.0 mi WNW 8.1 mph - N/A   Overcast
7:55 AM 55.9 °F 54.0 °F 93% 29.79 in 5.0 mi NNW 9.2 mph - N/A   Overcast
8:55 AM 57.0 °F 54.0 °F 89% 29.80 in 9.0 mi WNW 8.1 mph - N/A   Overcast
9:55 AM 57.0 °F 53.1 °F 87% 29.81 in 8.0 mi NW 4.6 mph - N/A   Overcast
10:20 AM 60.8 °F 53.6 °F 77% 29.84 in 10.0 mi WNW 8.1 mph - N/A   Overcast
10:39 AM 60.8 °F 53.6 °F 77% 29.84 in 10.0 mi West 5.8 mph - N/A   Overcast
10:55 AM 62.1 °F 53.1 °F 72% 29.81 in 10.0 mi WNW 8.1 mph - N/A   Scattered Clouds
11:55 AM 64.0 °F 54.0 °F 70% 29.83 in 10.0 mi NW 17.3 mph - N/A   Partly Cloudy
12:07 PM 62.6 °F 53.6 °F 72% 29.85 in 10.0 mi NW 20.7 mph - N/A   Scattered Clouds
12:34 PM 62.6 °F 53.6 °F 72% 29.86 in 7.0 mi NW 15.0 mph 24.2 mph N/A   Mostly Cloudy
12:55 PM 63.0 °F 54.0 °F 72% 29.83 in 7.0 mi NW 16.1 mph 23.0 mph N/A   Scattered Clouds
1:55 PM 64.0 °F 54.0 °F 70% 29.82 in 8.0 mi NW 13.8 mph - N/A   Scattered Clouds
2:27 PM 66.2 °F 53.6 °F 64% 29.84 in 10.0 mi NNW 13.8 mph - N/A   Partly Cloudy
2:55 PM 66.9 °F 54.0 °F 63% 29.81 in 10.0 mi NW 18.4 mph 21.9 mph N/A   Partly Cloudy
3:35 PM 66.2 °F 55.4 °F 68% 29.83 in 10.0 mi NW 17.3 mph 24.2 mph N/A   Partly Cloudy
3:55 PM 66.9 °F 55.0 °F 66% 29.80 in 10.0 mi NW 18.4 mph 23.0 mph N/A   Partly Cloudy
4:55 PM 64.9 °F 55.0 °F 70% 29.80 in 10.0 mi NW 18.4 mph 24.2 mph N/A   Clear
5:55 PM 63.0 °F 55.0 °F 75% 29.80 in 10.0 mi NW 13.8 mph - N/A   Partly Cloudy
6:55 PM 60.1 °F 55.0 °F 83% 29.80 in 10.0 mi NW 13.8 mph - N/A   Clear
7:55 PM 57.9 °F 55.0 °F 90% 29.81 in 10.0 mi NNW 9.2 mph - N/A   Clear
8:55 PM 57.0 °F 54.0 °F 89% 29.82 in 10.0 mi NW 9.2 mph - N/A   Clear
9:55 PM 57.0 °F 55.0 °F 93% 29.82 in 10.0 mi NNW 6.9 mph - N/A   Mostly Cloudy
10:03 PM 57.2 °F 55.4 °F 94% 29.85 in 10.0 mi NNW 9.2 mph - N/A   Mostly Cloudy
10:55 PM 55.9 °F 55.0 °F 97% 29.83 in 10.0 mi NW 4.6 mph - N/A   Overcast
11:18 PM 57.2 °F 55.4 °F 94% 29.85 in 10.0 mi NW 3.5 mph - N/A   Overcast
11:55 PM 57.0 °F 55.0 °F 93% 29.82 in 8.0 mi NW 5.8 mph - N/A   Overcast